This is the latest recevied weather packets stored in our database for station/object KD4IZ-13. If no packets are shown the sender has not sent any weather packets the latest 1 day(s).
| Time | Temp. | Humidity | Pressure | Rain* | Wind** | Luminosity | Snow |
|---|---|---|---|---|---|---|---|
| 1778053134 | 20° C | 68% | 1010.7 hPa | 0 mm | 3.58 m/s, 230° | 0 W/m² | - |
| 1778052831 | 20° C | 67% | 1010.7 hPa | 0 mm | 3.13 m/s, 196° | 0 W/m² | - |
| 1778052528 | 20° C | 68% | 1010.9 hPa | 0 mm | 1.34 m/s, 152° | 0 W/m² | - |
| 1778052226 | 20° C | 67% | 1010.8 hPa | 0 mm | 3.13 m/s, 197° | 0 W/m² | - |
| 1778051923 | 20.56° C | 67% | 1011 hPa | 0 mm | 2.24 m/s, 236° | 0 W/m² | - |
| 1778051621 | 20.56° C | 66% | 1010.7 hPa | 0 mm | 1.34 m/s, 201° | 0 W/m² | - |
| 1778051318 | 20.56° C | 66% | 1011 hPa | 0 mm | 2.24 m/s, 223° | 0 W/m² | - |
| 1778051015 | 20.56° C | 66% | 1011.1 hPa | 0 mm | 2.24 m/s, 193° | 0 W/m² | - |
| 1778050712 | 20.56° C | 66% | 1011 hPa | 0 mm | 1.79 m/s, 249° | 0 W/m² | - |
| 1778050410 | 20.56° C | 66% | 1011.2 hPa | 0 mm | 0.89 m/s, 233° | 0 W/m² | - |
| 1778050106 | 20.56° C | 65% | 1011 hPa | 0 mm | 4.47 m/s, 186° | 0 W/m² | - |
| 1778049801 | 20.56° C | 65% | 1011.3 hPa | 0 mm | 4.47 m/s, 172° | 0 W/m² | - |
| 1778049499 | 20.56° C | 65% | 1011.2 hPa | 0 mm | 3.13 m/s, 287° | 0 W/m² | - |
| 1778049196 | 20.56° C | 64% | 1011.4 hPa | 0 mm | 2.68 m/s, 213° | 0 W/m² | - |
| 1778048895 | 20.56° C | 65% | 1011.4 hPa | 0 mm | 4.02 m/s, 259° | 0 W/m² | - |
| 1778048592 | 20.56° C | 64% | 1011.3 hPa | 0 mm | 1.34 m/s, 251° | 0 W/m² | - |
| 1778048288 | 21.11° C | 64% | 1011.5 hPa | 0 mm | 2.24 m/s, 226° | 0 W/m² | - |
| 1778047985 | 21.11° C | 64% | 1011.2 hPa | 0 mm | 2.24 m/s, 239° | 0 W/m² | - |
| 1778047683 | 21.11° C | 63% | 1011.5 hPa | 0 mm | 3.58 m/s, 239° | 0 W/m² | - |
| 1778047381 | 21.11° C | 63% | 1011.3 hPa | 0 mm | 3.58 m/s, 244° | 0 W/m² | - |
| 1778047077 | 21.11° C | 63% | 1011.5 hPa | 0 mm | 1.79 m/s, 197° | 0 W/m² | - |
| 1778046774 | 21.11° C | 63% | 1011.5 hPa | 0 mm | 2.68 m/s, 254° | 0 W/m² | - |
| 1778046471 | 21.11° C | 63% | 1011.4 hPa | 0 mm | 3.58 m/s, 244° | 0 W/m² | - |
| 1778046168 | 21.11° C | 62% | 1011.7 hPa | 0 mm | 3.58 m/s, 230° | 0 W/m² | - |
| 1778045864 | 21.11° C | 61% | 1011.8 hPa | 0 mm | 4.02 m/s, 210° | 0 W/m² | - |
* Rain latest hour (hover to see other rain measurements)
** Current wind speed in m/s (hover to see current wind gust speed)